Location: Caltech
(34.1382°N, 118.1253°W)
Time: 19:25:00
(UTC-08:00)

Cosmos 1697 Rocket - Visible Passes

Search period start: 22 November 2014 00:00
Search period end: 02 December 2014 00:00
Orbit: 834 x 843 km, 71.0° (Epoch: 22 November)

Date Brightness Start Highest point End Pass type
(mag) Time Alt. Az. Time Alt. Az. Time Alt. Az.
22 Nov 2.6 18:44:51 10° NNW 18:50:29 87° WSW 18:54:00 24° SSE visible
23 Nov 2.6 18:28:47 10° NNW 18:34:26 86° ENE 18:40:03 10° SSE visible
24 Nov 2.6 18:12:43 10° NNW 18:18:22 80° ENE 18:23:59 10° SSE visible
24 Nov 5.7 20:01:03 10° W 20:01:31 10° W 20:01:59 10° WSW visible
25 Nov 2.6 17:56:40 10° NNW 18:02:18 74° ENE 18:07:55 10° SSE visible
25 Nov 5.7 19:43:52 10° W 19:45:30 11° W 19:47:09 10° WSW visible
26 Nov 2.6 17:40:37 10° NNW 17:46:14 69° ENE 17:51:49 10° SSE visible
26 Nov 5.7 19:27:14 10° WNW 19:29:30 13° W 19:31:45 10° WSW visible
27 Nov 2.7 17:24:35 10° NNW 17:30:10 63° ENE 17:35:44 10° SSE visible
27 Nov 5.7 19:10:46 10° WNW 19:13:29 14° W 19:16:12 10° SW visible
28 Nov 2.7 17:08:33 10° NNW 17:14:06 58° ENE 17:19:37 10° SE visible
28 Nov 5.6 18:54:23 10° WNW 18:57:28 15° W 19:00:33 10° SW visible
29 Nov 5.3 06:12:32 10° SSE 06:17:02 25° ESE 06:21:32 10° NE visible
29 Nov 5.6 18:38:03 10° WNW 18:41:27 17° W 18:44:51 10° SW visible
30 Nov 5.4 05:56:40 10° SSE 06:01:00 23° E 06:05:20 10° NE visible
30 Nov 5.6 18:21:45 10° WNW 18:25:26 18° W 18:29:06 10° SW visible
01 Dec 5.5 05:40:50 10° SSE 05:44:58 22° E 05:49:07 10° NE visible
01 Dec 5.5 18:05:29 10° NW 18:09:24 20° W 18:13:19 10° SW visible
